Location: Heidgraben
(53.7081°N, 9.6576°E)
Time: 08:45:12
(UTC+00:00)

ATLAS 2AS CENTAUR R/B - Pass Details

Date: 05 July 2020
Orbit: 930 x 1282 km, 63.7° (Epoch: 19 July)

Event Time Altitude Azimuth Distance (km) Brightness Sun altitude
Rises 20:39:26 0° 307° (NW) 4,232 7.7 -5.6°
Reaches altitude 10° 20:42:22 10° 311° (NW) 3,236 6.9 -5.8°
Maximum altitude 20:50:09 64° 33° (NNE) 1,309 3.3 -6.5°
Drops below altitude 10° 20:57:19 10° 114° (ESE) 2,998 4.5 -7.1°
Enters shadow 20:58:54 - 117° (ESE) 3,544 4.9 -7.3°
